Location: El Bakhil
(32.7726°N, 5.5387°W)
Time: 23:38:32
(UTC+00:00)

EO-88 - Pass Details

Date: 01 August 2021
Orbit: 474 x 484 km, 97.3° (Epoch: 24 September)

Event Time Altitude Azimuth Distance (km) Brightness Sun altitude
Exits shadow 22:33:06 15° 321° (NW) 1,365 ? -32.4°
Drops below altitude 10° 22:33:55 10° 328° (NNW) 1,664 ? -32.5°
Sets 22:36:09 0° 338° (NNW) 2,559 ? -32.8°
